Location: Prairie Dale
(45.6972°N, 104.5033°W)
Time: 14:30:48
(UTC+00:00)

EO-79 - Pass Details

Date: 30 June 2022
Orbit: 588 x 603 km, 98.0° (Epoch: 18 August)

Event Time Altitude Azimuth Distance (km) Brightness Sun altitude
Rises 08:49:36 0° 12° (NNE) 2,855 ? -16.9°
Reaches altitude 10° 08:51:46 10° 12° (NNE) 1,950 ? -16.7°
Maximum altitude 08:56:01 83° 284° (WNW) 612 ? -16.4°
Enters shadow 08:58:02 31° 199° (SSW) 1,073 ? -16.2°
